[[{"header":{"parameterUnit":"m.s-1","parameterCategory":1,"la1":30.2992,"la2":30.254,"lo1":-89.0895,"lo2":-89.0443,"dy":0.0025,"dx":0.0025,"nx":19,"ny":19,"refTime":"2026-05-01T09:00:00:Z","depth":0,"parameterNumber":2,"parameterNumberName":"U-component_of_WINDS"},"data":[0,0,0,-6.1213,-6.1217,-6.1373,-6.1373,-6.1612,-6.1614,0,0,0,0,0,0,0,0,0,0,0,-6.1192,-6.1195,-6.1213,-6.1218,-6.1373,-6.1373,-6.1611,-6.1614,0,0,0,0,0,0,0,0,0,0,0,-6.1191,-6.1194,-6.1197,-6.1218,-6.1373,-6.1373,-6.1611,-6.1479,0,0,0,0,0,0,0,0,0,0,-6.1321,-6.1326,-6.1193,-6.1197,-6.1219,-6.1373,-6.1373,-6.1472,-6.1487,-6.1559,0,-6.163,0,-6.1626,-6.1633,-6.1634,0,0,0,-6.1199,-6.1314,-6.1333,-6.1198,-6.1221,-6.1372,-6.1297,-6.148,-6.1497,-6.1579,-6.1633,-6.164,-6.163,-6.1635,-6.1636,-6.2115,-6.2118,0,0,-6.119,-6.1233,-6.1322,-6.1346,-6.1325,-6.1293,-6.1303,-6.149,-6.1551,-6.1633,-6.1645,-6.1634,-6.1636,-6.1638,-6.2112,-6.2116,0,0,0,-6.1178,-6.1228,-6.1242,-6.1337,-6.1362,-6.1298,-6.1309,-6.1542,-6.1543,-6.1647,-6.1637,-6.1638,-6.1641,-6.2108,-6.2113,-6.2313,0,0,0,-6.1172,-6.1221,-6.1239,-6.1268,-6.136,-6.1454,-6.1358,-6.153,-6.155,-6.1636,-6.1638,-6.1644,-6.2105,-6.2111,-6.2299,-6.24,0,0,0,-6.1174,-6.1221,-6.1252,-6.127,-6.1338,-6.145,-6.1461,-6.1533,-6.1545,-6.1634,-6.1645,-6.2102,-6.211,-6.2288,-6.2381,-6.2541,0,0,0,-6.1187,-6.1425,-6.1256,-6.1517,-6.1337,-6.1572,-6.146,-6.1632,-6.1732,-6.1639,-6.2105,-6.2113,-6.2284,-6.2369,-6.2529,-6.2686,-6.2755,0,0,-6.1512,-6.1466,-6.1616,-6.1469,-6.1746,-6.1545,-6.185,-6.19,-6.1867,-6.2034,-6.2045,-6.2304,-6.238,-6.2539,-6.312,-6.3176,0,0,0,-6.1734,-6.1843,-6.1906,-6.2005,-6.205,-6.2096,-6.2095,-6.2113,-6.2253,-6.1962,-6.2402,-6.2446,-6.2537,-6.2611,-6.2657,-6.2735,-6.2147,-6.2147,-6.2146,-6.2257,-6.2204,-6.245,-6.2417,-6.2513,-6.251,-6.2584,-6.2608,-6.2524,-6.2629,-6.268,-6.3039,-6.3126,-6.3161,-6.3242,-6.2755,-6.2756,-6.2757,-6.2757,-6.2729,-6.2877,-6.2762,-6.296,-6.2903,-6.3067,-6.3073,-6.3009,-6.3155,-6.2996,-6.3074,-6.2908,-6.3223,-6.3291,-6.2772,-6.2769,-6.2767,-6.2766,-6.2765,-6.3069,-6.313,-6.3149,-6.3288,-6.34,-6.3356,-6.3502,-6.3443,-6.3388,-6.3465,-6.3514,-6.351,-6.3502,-6.3492,-6.3493,-6.3494,-6.3495,-6.3496,-6.3497,-6.3415,-6.3429,-6.3561,-6.3629,-6.3686,-6.3752,-6.3751,-6.3805,-6.3849,-6.3795,-6.3795,-6.3704,-6.3263,-6.3155,-6.3516,-6.3513,-6.351,-6.3509,-6.3507,-6.3919,-6.3796,-6.3999,-6.4056,-6.4132,-6.4249,-6.4171,-6.4286,-6.4321,-6.4396,-6.4287,-6.397,-6.3918,-6.388,-6.3792,-6.4295,-6.4295,-6.4295,-6.4295,-6.4208,-6.4176,-6.4372,-6.4467,-6.4553,-6.4504,-6.4736,-6.4738,-6.472,-6.4739,-6.4656,-6.4532,-6.4496,-6.4466,-6.4415,-6.4332,-6.4962,-6.4962,-6.4963,-6.4517,-6.4491,-6.4701,-6.4683,-6.4738,-6.4787,-6.5004,-6.5118,-6.5071,-6.4989,-6.4753,-6.4725,-6.4523,-6.4459,-6.4375,-6.4298,-6.4143,0,0]},{"header":{"parameterUnit":"m.s-1","parameterCategory":1,"la1":30.2992,"la2":30.254,"lo1":-89.0895,"lo2":-89.0443,"dy":0.0025,"dx":0.0025,"nx":19,"ny":19,"refTime":"2026-05-01T09:00:00:Z","depth":0,"parameterNumber":3,"parameterNumberName":"V-component_of_WINDS"},"data":[0,0,0,-4.0516,-4.0516,-4.0486,-4.0486,-4.0458,-4.0458,0,0,0,0,0,0,0,0,0,0,0,-4.0533,-4.0533,-4.0516,-4.0516,-4.0486,-4.0486,-4.0458,-4.0458,0,0,0,0,0,0,0,0,0,0,0,-4.0533,-4.0533,-4.0533,-4.0516,-4.0486,-4.0486,-4.0458,-4.0476,0,0,0,0,0,0,0,0,0,0,-4.0503,-4.0527,-4.0533,-4.0533,-4.0516,-4.0486,-4.0486,-4.0477,-4.0475,-4.0476,0,-4.048,0,-4.0469,-4.0457,-4.0457,0,0,0,-4.051,-4.0528,-4.0513,-4.0533,-4.0515,-4.0486,-4.0498,-4.0476,-4.0474,-4.0474,-4.048,-4.0478,-4.0468,-4.0457,-4.0456,-4.0482,-4.0483,0,0,-4.0511,-4.0531,-4.0515,-4.0512,-4.0519,-4.0499,-4.0497,-4.0475,-4.0482,-4.048,-4.0477,-4.0468,-4.0456,-4.0456,-4.0482,-4.0482,0,0,0,-4.052,-4.0533,-4.0518,-4.0514,-4.0508,-4.0498,-4.0496,-4.0483,-4.0477,-4.0477,-4.0467,-4.0456,-4.0456,-4.0481,-4.0482,-4.052,0,0,0,-4.0521,-4.0538,-4.0519,-4.0531,-4.0509,-4.0495,-4.0505,-4.0478,-4.0475,-4.0468,-4.0456,-4.0456,-4.0481,-4.0482,-4.0518,-4.0535,0,0,0,-4.0532,-4.0539,-4.0538,-4.0532,-4.052,-4.0495,-4.0487,-4.0477,-4.0469,-4.0457,-4.0456,-4.0481,-4.0482,-4.0517,-4.0532,-4.0546,0,0,0,-4.055,-4.0573,-4.0539,-4.0561,-4.0521,-4.052,-4.0487,-4.0486,-4.048,-4.0456,-4.0481,-4.0482,-4.0516,-4.053,-4.0544,-4.0561,-4.057,0,0,-4.0591,-4.0579,-4.059,-4.0558,-4.0569,-4.0523,-4.0538,-4.0514,-4.0494,-4.0487,-4.0487,-4.0519,-4.0532,-4.0546,-4.0616,-4.0624,0,0,0,-4.061,-4.0618,-4.0617,-4.0612,-4.0593,-4.0578,-4.0549,-4.0539,-4.0532,-4.0495,-4.0528,-4.0535,-4.0542,-4.0549,-4.0555,-4.0559,-4.0486,-4.0486,-4.0486,-4.0697,-4.067,-4.0686,-4.0655,-4.065,-4.0618,-4.0611,-4.0592,-4.0568,-4.0575,-4.0573,-4.0619,-4.0628,-4.0633,-4.0637,-4.058,-4.0581,-4.0581,-4.0581,-4.0753,-4.0759,-4.0724,-4.0727,-4.0697,-4.0699,-4.0668,-4.065,-4.0645,-4.062,-4.0625,-4.0598,-4.0642,-4.0644,-4.0583,-4.0583,-4.0583,-4.0582,-4.0582,-4.0805,-4.0803,-4.0791,-4.0779,-4.0773,-4.074,-4.0737,-4.071,-4.0685,-4.069,-4.0683,-4.0682,-4.0677,-4.0689,-4.0689,-4.0689,-4.0689,-4.0689,-4.0689,-4.0864,-4.0849,-4.085,-4.0831,-4.0823,-4.0809,-4.0775,-4.0766,-4.0748,-4.0729,-4.0729,-4.0701,-4.0652,-4.0639,-4.0692,-4.0691,-4.0691,-4.0691,-4.0691,-4.0929,-4.091,-4.0912,-4.0904,-4.0877,-4.0871,-4.0837,-4.0819,-4.0807,-4.0806,-4.0777,-4.0745,-4.0731,-4.0726,-4.0715,-4.0784,-4.0784,-4.0784,-4.0784,-4.0973,-4.0963,-4.0958,-4.0946,-4.0931,-4.0899,-4.0899,-4.0872,-4.0842,-4.0832,-4.0818,-4.0802,-4.0797,-4.0786,-4.0779,-4.0768,-4.085,-4.085,-4.085,-4.101,-4.0997,-4.1004,-4.0974,-4.095,-4.093,-4.0929,-4.0914,-4.0875,-4.0852,-4.0823,-4.082,-4.0793,-4.0787,-4.0763,-4.0753,-4.0733,0,0]}]]